AAL100 MKJP-SKCG

Flight info

Callsign AAL100
Flight time 1h 13m
Altitude 33000
Route ADSOV UP525 SINID DCT VARON VARON2B
Aircraft A21N/M-SDE3FGHIRWY/LB1

Departure

Time 2026-05-07 18:16
Airport Norman Manley International Airport (MKJP)

Arrival

Time 2026-05-07 19:29
Airport Rafael Nuñez International Airport (SKCG)
Time Latitude Longitude Altitude Speed Heading
2026-05-07 18:10 17.93498 -76.77927 36 ft 0 kts 246°
2026-05-07 18:10 17.93496 -76.77932 36 ft 2 kts 245°
2026-05-07 18:10 17.93484 -76.77959 36 ft 5 kts 244°
2026-05-07 18:10 17.93464 -76.78003 36 ft 7 kts 247°
2026-05-07 18:11 17.93466 -76.78064 36 ft 9 kts 288°
2026-05-07 18:11 17.93484 -76.78112 35 ft 11 kts 292°
2026-05-07 18:11 17.93529 -76.78224 35 ft 16 kts 292°
2026-05-07 18:11 17.93576 -76.78352 35 ft 18 kts 290°
2026-05-07 18:12 17.93622 -76.78481 35 ft 18 kts 292°
2026-05-07 18:12 17.93674 -76.78608 35 ft 18 kts 292°
2026-05-07 18:12 17.93722 -76.78735 36 ft 18 kts 291°
2026-05-07 18:12 17.93770 -76.78861 37 ft 18 kts 291°
2026-05-07 18:13 17.93817 -76.78986 37 ft 18 kts 291°
2026-05-07 18:13 17.93865 -76.79110 38 ft 18 kts 291°
2026-05-07 18:13 17.93914 -76.79234 38 ft 18 kts 293°
2026-05-07 18:13 17.93964 -76.79357 38 ft 18 kts 293°
2026-05-07 18:14 17.94015 -76.79484 37 ft 18 kts 292°
2026-05-07 18:14 17.94064 -76.79613 37 ft 19 kts 291°
2026-05-07 18:14 17.94097 -76.79739 37 ft 15 kts 280°
2026-05-07 18:14 17.94113 -76.79836 37 ft 13 kts 276°
2026-05-07 18:15 17.94060 -76.79916 37 ft 14 kts 186°
2026-05-07 18:15 17.93989 -76.79844 37 ft 26 kts 113°
2026-05-07 18:15 17.93821 -76.79431 38 ft 98 kts 112°
2026-05-07 18:15 17.93473 -76.78522 37 ft 166 kts 110°
2026-05-07 18:16 17.93025 -76.77367 710 ft 173 kts 121°
2026-05-07 18:16 17.92100 -76.76602 1614 ft 179 kts 157°
2026-05-07 18:16 17.90865 -76.76547 2520 ft 192 kts 188°
2026-05-07 18:16 17.89541 -76.76983 3254 ft 206 kts 193°
2026-05-07 18:17 17.88112 -76.77123 3686 ft 212 kts 167°
2026-05-07 18:17 17.86636 -76.76717 4071 ft 227 kts 159°
2026-05-07 18:17 17.85053 -76.76174 4385 ft 250 kts 159°
2026-05-07 18:17 17.83361 -76.75611 4986 ft 259 kts 160°
2026-05-07 18:18 17.81626 -76.75064 5725 ft 263 kts 160°
2026-05-07 18:18 17.79863 -76.74528 6474 ft 266 kts 161°
2026-05-07 18:18 17.78078 -76.73998 7215 ft 268 kts 161°
2026-05-07 18:18 17.76278 -76.73469 7930 ft 270 kts 162°
2026-05-07 18:19 17.74462 -76.72942 8616 ft 273 kts 162°
2026-05-07 18:19 17.72625 -76.72411 9274 ft 275 kts 163°
2026-05-07 18:19 17.70772 -76.71876 9902 ft 278 kts 163°
2026-05-07 18:19 17.68898 -76.71336 10501 ft 281 kts 163°
2026-05-07 18:20 17.67003 -76.70793 11075 ft 284 kts 163°
2026-05-07 18:20 17.65083 -76.70242 11633 ft 288 kts 163°
2026-05-07 18:20 17.63138 -76.69682 12190 ft 292 kts 163°
2026-05-07 18:20 17.61167 -76.69118 12733 ft 296 kts 163°
2026-05-07 18:21 17.59172 -76.68545 13278 ft 299 kts 163°
2026-05-07 18:21 17.57156 -76.67968 13816 ft 301 kts 163°
2026-05-07 18:21 17.55125 -76.67387 14360 ft 303 kts 163°
2026-05-07 18:21 17.53080 -76.66801 14891 ft 306 kts 162°
2026-05-07 18:22 17.51018 -76.66209 15407 ft 308 kts 162°
2026-05-07 18:22 17.49625 -76.65810 15739 ft 310 kts 162°
2026-05-07 18:22 17.46847 -76.65014 16402 ft 313 kts 162°
2026-05-07 18:22 17.44737 -76.64407 16878 ft 316 kts 162°
2026-05-07 18:23 17.42608 -76.63796 17334 ft 318 kts 161°
2026-05-07 18:23 17.40461 -76.63180 17784 ft 321 kts 161°
2026-05-07 18:23 17.38292 -76.62558 18197 ft 325 kts 161°
2026-05-07 18:23 17.36095 -76.61928 18601 ft 329 kts 161°
2026-05-07 18:24 17.33843 -76.61283 19002 ft 332 kts 161°
2026-05-07 18:24 17.31594 -76.60641 19397 ft 336 kts 162°
2026-05-07 18:24 17.29283 -76.60140 19792 ft 341 kts 168°
2026-05-07 18:24 17.26899 -76.59899 20171 ft 346 kts 174°
2026-05-07 18:25 17.24470 -76.59854 20533 ft 351 kts 176°
2026-05-07 18:25 17.22016 -76.59848 20898 ft 354 kts 176°
2026-05-07 18:25 17.19534 -76.59847 21183 ft 360 kts 176°
2026-05-07 18:25 17.16987 -76.59840 21360 ft 370 kts 176°
2026-05-07 18:26 17.14368 -76.59831 21539 ft 380 kts 176°
2026-05-07 18:26 17.11680 -76.59821 21709 ft 390 kts 176°
2026-05-07 18:26 17.08925 -76.59807 21880 ft 400 kts 176°
2026-05-07 18:26 17.06102 -76.59793 22043 ft 409 kts 176°
2026-05-07 18:27 17.03215 -76.59779 22199 ft 419 kts 176°
2026-05-07 18:27 17.00267 -76.59764 22354 ft 427 kts 176°
2026-05-07 18:27 16.97258 -76.59747 22509 ft 436 kts 176°
2026-05-07 18:27 16.95250 -76.59737 22608 ft 441 kts 177°
2026-05-07 18:28 16.91073 -76.59717 22800 ft 451 kts 177°
2026-05-07 18:28 16.87900 -76.59701 22932 ft 458 kts 177°
2026-05-07 18:28 16.84677 -76.59686 23058 ft 465 kts 177°
2026-05-07 18:28 16.81408 -76.59669 23179 ft 471 kts 177°
2026-05-07 18:29 16.78097 -76.59653 23293 ft 477 kts 177°
2026-05-07 18:29 16.74751 -76.59637 23401 ft 483 kts 177°
2026-05-07 18:29 16.71366 -76.59620 23504 ft 488 kts 177°
2026-05-07 18:29 16.67948 -76.59538 23598 ft 492 kts 174°
2026-05-07 18:30 16.64529 -76.59163 23692 ft 495 kts 168°
2026-05-07 18:30 16.61138 -76.58459 23781 ft 497 kts 163°
2026-05-07 18:30 16.57788 -76.57501 23876 ft 500 kts 161°
2026-05-07 18:30 16.54436 -76.56480 24017 ft 502 kts 160°
2026-05-07 18:31 16.51079 -76.55444 24243 ft 502 kts 160°
2026-05-07 18:31 16.47725 -76.54410 24541 ft 501 kts 160°
2026-05-07 18:31 16.44384 -76.53384 24850 ft 499 kts 161°
2026-05-07 18:31 16.41048 -76.52366 25131 ft 499 kts 161°
2026-05-07 18:32 16.37716 -76.51350 25427 ft 498 kts 161°
2026-05-07 18:32 16.34389 -76.50339 25716 ft 497 kts 161°
2026-05-07 18:32 16.31063 -76.49329 26015 ft 496 kts 161°
2026-05-07 18:32 16.27743 -76.48323 26330 ft 495 kts 161°
2026-05-07 18:33 16.24430 -76.47319 26639 ft 494 kts 161°
2026-05-07 18:33 16.21122 -76.46317 26947 ft 493 kts 161°
2026-05-07 18:33 16.17826 -76.45320 27271 ft 492 kts 161°
2026-05-07 18:33 16.14538 -76.44324 27599 ft 491 kts 161°
2026-05-07 18:34 16.11257 -76.43331 27936 ft 490 kts 161°
2026-05-07 18:34 16.07985 -76.42342 28283 ft 489 kts 161°
2026-05-07 18:34 16.04719 -76.41356 28625 ft 488 kts 161°
2026-05-07 18:34 16.01458 -76.40370 28958 ft 487 kts 161°
2026-05-07 18:35 15.98203 -76.39387 29308 ft 486 kts 161°
2026-05-07 18:35 15.94959 -76.38408 29698 ft 484 kts 161°
2026-05-07 18:35 15.91723 -76.37432 30056 ft 483 kts 161°
2026-05-07 18:35 15.88496 -76.36458 30423 ft 482 kts 161°
2026-05-07 18:36 15.85279 -76.35487 30806 ft 480 kts 161°
2026-05-07 18:36 15.82072 -76.34519 31182 ft 479 kts 162°
2026-05-07 18:36 15.78872 -76.33553 31518 ft 479 kts 162°
2026-05-07 18:36 15.75667 -76.32587 31798 ft 480 kts 162°
2026-05-07 18:37 15.72453 -76.31619 32057 ft 481 kts 162°
2026-05-07 18:37 15.69231 -76.30648 32332 ft 482 kts 162°
2026-05-07 18:37 15.66003 -76.29676 32603 ft 482 kts 162°
2026-05-07 18:37 15.62772 -76.28704 32875 ft 483 kts 162°
2026-05-07 18:38 15.59530 -76.27729 32953 ft 485 kts 162°
2026-05-07 18:38 15.53036 -76.25776 32960 ft 485 kts 162°
2026-05-07 18:39 15.46541 -76.23825 32959 ft 485 kts 162°
2026-05-07 18:39 15.40047 -76.21875 32956 ft 485 kts 162°
2026-05-07 18:40 15.33554 -76.19925 32956 ft 485 kts 162°
2026-05-07 18:40 15.27061 -76.17978 32947 ft 485 kts 162°
2026-05-07 18:41 15.20566 -76.16030 32937 ft 486 kts 162°
2026-05-07 18:41 15.14064 -76.14082 32932 ft 485 kts 162°
2026-05-07 18:42 15.07565 -76.12135 32936 ft 485 kts 162°
2026-05-07 18:42 15.01013 -76.10375 32943 ft 487 kts 166°
2026-05-07 18:43 14.94284 -76.09332 32948 ft 489 kts 173°
2026-05-07 18:43 14.87489 -76.08711 32947 ft 490 kts 173°
2026-05-07 18:44 14.80693 -76.08108 32945 ft 489 kts 173°
2026-05-07 18:44 14.73897 -76.07498 32944 ft 490 kts 173°
2026-05-07 18:45 14.67094 -76.06883 32943 ft 490 kts 173°
2026-05-07 18:45 14.60291 -76.06266 32941 ft 490 kts 173°
2026-05-07 18:46 14.53485 -76.05650 32940 ft 490 kts 173°
2026-05-07 18:46 14.46682 -76.05034 32939 ft 490 kts 173°
2026-05-07 18:47 14.39884 -76.04420 32938 ft 490 kts 173°
2026-05-07 18:47 14.33077 -76.03805 32938 ft 490 kts 173°
2026-05-07 18:48 14.26257 -76.03188 32935 ft 491 kts 173°
2026-05-07 18:48 14.19429 -76.02573 32933 ft 491 kts 173°
2026-05-07 18:49 14.12607 -76.01957 32930 ft 491 kts 173°
2026-05-07 18:49 14.05793 -76.01342 32929 ft 490 kts 173°
2026-05-07 18:50 13.98989 -76.00729 32929 ft 490 kts 173°
2026-05-07 18:50 13.92181 -76.00117 32926 ft 491 kts 173°
2026-05-07 18:51 13.85366 -75.99503 32922 ft 491 kts 173°
2026-05-07 18:51 13.78552 -75.98890 32922 ft 491 kts 173°
2026-05-07 18:52 13.71743 -75.98278 32920 ft 490 kts 173°
2026-05-07 18:52 13.64946 -75.97667 32914 ft 489 kts 173°
2026-05-07 18:53 13.58156 -75.97058 32909 ft 489 kts 173°
2026-05-07 18:53 13.51368 -75.96450 32904 ft 488 kts 173°
2026-05-07 18:54 13.44580 -75.95841 32897 ft 488 kts 173°
2026-05-07 18:54 13.37791 -75.95232 32895 ft 489 kts 173°
2026-05-07 18:55 13.31005 -75.94623 32893 ft 488 kts 173°
2026-05-07 18:55 13.24226 -75.94016 32894 ft 488 kts 173°
2026-05-07 18:56 13.17447 -75.93410 32892 ft 488 kts 173°
2026-05-07 18:56 13.10675 -75.92806 32891 ft 487 kts 173°
2026-05-07 18:57 13.03914 -75.92201 32889 ft 487 kts 173°
2026-05-07 18:57 12.97156 -75.91596 32889 ft 487 kts 173°
2026-05-07 18:58 12.90386 -75.90991 32886 ft 487 kts 173°
2026-05-07 18:58 12.83612 -75.90387 32891 ft 487 kts 173°
2026-05-07 18:59 12.76846 -75.89785 32893 ft 487 kts 173°
2026-05-07 18:59 12.70082 -75.89183 32893 ft 487 kts 173°
2026-05-07 19:00 12.63324 -75.88580 32889 ft 487 kts 173°
2026-05-07 19:00 12.56560 -75.87976 32891 ft 487 kts 173°
2026-05-07 19:01 12.49789 -75.87373 32882 ft 488 kts 173°
2026-05-07 19:01 12.43022 -75.86772 32882 ft 487 kts 173°
2026-05-07 19:02 12.36258 -75.86172 32880 ft 487 kts 173°
2026-05-07 19:02 12.29496 -75.85571 32875 ft 486 kts 173°
2026-05-07 19:03 12.22733 -75.84970 32873 ft 487 kts 173°
2026-05-07 19:03 12.15963 -75.84369 32868 ft 488 kts 173°
2026-05-07 19:04 12.09183 -75.83767 32868 ft 488 kts 173°
2026-05-07 19:04 12.02413 -75.83167 32864 ft 487 kts 173°
2026-05-07 19:05 11.95652 -75.82568 32865 ft 487 kts 173°
2026-05-07 19:05 11.88898 -75.81969 32864 ft 486 kts 173°
2026-05-07 19:06 11.82147 -75.81372 32863 ft 486 kts 173°
2026-05-07 19:06 11.72010 -75.80475 32861 ft 487 kts 173°
2026-05-07 19:07 11.65278 -75.79880 32561 ft 480 kts 173°
2026-05-07 19:07 11.61951 -75.79586 31783 ft 481 kts 173°
2026-05-07 19:07 11.58604 -75.79290 30693 ft 487 kts 173°
2026-05-07 19:08 11.55212 -75.78990 29525 ft 493 kts 173°
2026-05-07 19:08 11.51775 -75.78687 28376 ft 499 kts 173°
2026-05-07 19:08 11.48306 -75.78381 27276 ft 503 kts 173°
2026-05-07 19:08 11.44815 -75.78072 26165 ft 506 kts 173°
2026-05-07 19:09 11.41301 -75.77763 25028 ft 509 kts 173°
2026-05-07 19:09 11.37772 -75.77453 23850 ft 511 kts 173°
2026-05-07 19:09 11.34234 -75.77142 22887 ft 508 kts 173°
2026-05-07 19:09 11.30737 -75.76835 22218 ft 499 kts 173°
2026-05-07 19:10 11.27301 -75.76533 21595 ft 491 kts 173°
2026-05-07 19:10 11.23918 -75.76235 20901 ft 485 kts 173°
2026-05-07 19:10 11.20573 -75.75940 20180 ft 479 kts 173°
2026-05-07 19:10 11.17266 -75.75647 19430 ft 475 kts 173°
2026-05-07 19:11 11.13982 -75.75355 18636 ft 471 kts 173°
2026-05-07 19:11 11.10730 -75.75067 17925 ft 465 kts 173°
2026-05-07 19:11 11.07481 -75.74781 17230 ft 459 kts 173°
2026-05-07 19:11 11.04322 -75.74488 16549 ft 452 kts 172°
2026-05-07 19:12 11.01231 -75.74060 15893 ft 444 kts 169°
2026-05-07 19:12 10.98198 -75.73583 15279 ft 437 kts 169°
2026-05-07 19:12 10.95210 -75.73103 14649 ft 431 kts 169°
2026-05-07 19:12 10.92259 -75.72628 14012 ft 426 kts 169°
2026-05-07 19:13 10.89344 -75.72158 13383 ft 420 kts 169°
2026-05-07 19:13 10.86473 -75.71697 12768 ft 415 kts 169°
2026-05-07 19:13 10.83645 -75.71242 12276 ft 406 kts 169°
2026-05-07 19:13 10.80908 -75.70804 11908 ft 384 kts 169°
2026-05-07 19:14 10.78361 -75.70399 11620 ft 355 kts 169°
2026-05-07 19:14 10.76004 -75.70024 11350 ft 329 kts 169°
2026-05-07 19:14 10.73816 -75.69674 11103 ft 306 kts 169°
2026-05-07 19:14 10.71778 -75.69348 10884 ft 285 kts 169°
2026-05-07 19:15 10.69850 -75.69038 10693 ft 277 kts 168°
2026-05-07 19:15 10.67948 -75.68730 10518 ft 275 kts 168°
2026-05-07 19:15 10.66053 -75.68424 10359 ft 274 kts 169°
2026-05-07 19:15 10.64166 -75.68121 10202 ft 272 kts 168°
2026-05-07 19:16 10.62350 -75.67831 10027 ft 253 kts 168°
2026-05-07 19:16 10.60668 -75.67564 9993 ft 234 kts 168°
2026-05-07 19:16 10.59099 -75.67316 9660 ft 223 kts 168°
2026-05-07 19:16 10.57598 -75.67073 9306 ft 212 kts 169°
2026-05-07 19:17 10.56175 -75.66846 9018 ft 201 kts 168°
2026-05-07 19:17 10.54794 -75.66624 8772 ft 200 kts 169°
2026-05-07 19:17 10.53415 -75.66402 8518 ft 200 kts 168°
2026-05-07 19:17 10.52043 -75.66183 8262 ft 199 kts 168°
2026-05-07 19:18 10.50678 -75.65964 8016 ft 197 kts 169°
2026-05-07 19:18 10.49320 -75.65746 7789 ft 196 kts 168°
2026-05-07 19:18 10.47968 -75.65530 7566 ft 196 kts 169°
2026-05-07 19:18 10.46619 -75.65315 7329 ft 195 kts 169°
2026-05-07 19:19 10.45272 -75.65101 7098 ft 195 kts 168°
2026-05-07 19:19 10.43925 -75.64884 6809 ft 195 kts 168°
2026-05-07 19:19 10.42586 -75.64671 6546 ft 194 kts 168°
2026-05-07 19:19 10.41251 -75.64458 6292 ft 194 kts 168°
2026-05-07 19:20 10.39916 -75.64245 6051 ft 193 kts 168°
2026-05-07 19:20 10.38584 -75.64030 5792 ft 193 kts 169°
2026-05-07 19:20 10.37258 -75.63820 5550 ft 192 kts 169°
2026-05-07 19:20 10.35930 -75.63609 5311 ft 192 kts 169°
2026-05-07 19:21 10.34609 -75.63397 5054 ft 191 kts 169°
2026-05-07 19:21 10.33295 -75.63188 4808 ft 190 kts 169°
2026-05-07 19:21 10.31985 -75.62979 4572 ft 189 kts 169°
2026-05-07 19:21 10.30681 -75.62772 4341 ft 189 kts 169°
2026-05-07 19:22 10.29380 -75.62564 4127 ft 188 kts 169°
2026-05-07 19:22 10.28152 -75.62180 3961 ft 179 kts 149°
2026-05-07 19:22 10.27233 -75.61376 3929 ft 174 kts 126°
2026-05-07 19:22 10.26691 -75.60293 3810 ft 171 kts 103°
2026-05-07 19:23 10.26545 -75.59105 3695 ft 169 kts 91°
2026-05-07 19:23 10.26511 -75.57909 3598 ft 169 kts 89°
2026-05-07 19:23 10.26484 -75.56712 3472 ft 170 kts 90°
2026-05-07 19:23 10.26452 -75.55512 3185 ft 170 kts 90°
2026-05-07 19:24 10.26411 -75.54318 2960 ft 169 kts 90°
2026-05-07 19:24 10.26463 -75.53133 2924 ft 168 kts 70°
2026-05-07 19:24 10.27170 -75.52267 2895 ft 158 kts 26°
2026-05-07 19:24 10.28221 -75.51967 2747 ft 155 kts
2026-05-07 19:25 10.29296 -75.51883 2552 ft 153 kts
2026-05-07 19:25 10.30350 -75.51849 2349 ft 148 kts
2026-05-07 19:25 10.31374 -75.51817 2163 ft 146 kts
2026-05-07 19:25 10.32391 -75.51781 1983 ft 145 kts
2026-05-07 19:26 10.33398 -75.51740 1799 ft 143 kts
2026-05-07 19:26 10.34394 -75.51698 1654 ft 143 kts
2026-05-07 19:26 10.35392 -75.51656 1462 ft 143 kts
2026-05-07 19:26 10.36388 -75.51614 1274 ft 142 kts
2026-05-07 19:27 10.37382 -75.51570 1088 ft 142 kts
2026-05-07 19:27 10.38376 -75.51530 908 ft 142 kts
2026-05-07 19:27 10.39366 -75.51488 729 ft 141 kts 359°
2026-05-07 19:27 10.40352 -75.51441 560 ft 141 kts
2026-05-07 19:28 10.41361 -75.51392 310 ft 147 kts
2026-05-07 19:28 10.42392 -75.51348 121 ft 147 kts 360°
2026-05-07 19:28 10.43398 -75.51318 22 ft 137 kts 359°
2026-05-07 19:28 10.44182 -75.51291 23 ft 76 kts 358°
2026-05-07 19:29 10.44423 -75.51294 23 ft 18 kts
2026-05-07 19:29 10.44496 -75.51292 23 ft 5 kts 355°
2026-05-07 19:29 10.44516 -75.51295 23 ft 0 kts 342°
2026-05-07 19:29 10.44528 -75.51307 23 ft 7 kts 303°
2026-05-07 19:30 10.44554 -75.51356 23 ft 8 kts 286°
2026-05-07 19:30 10.44565 -75.51414 24 ft 8 kts 281°
2026-05-07 19:30 10.44571 -75.51437 24 ft 2 kts 284°
2026-05-07 19:30 10.44576 -75.51459 24 ft 3 kts 281°
2026-05-07 19:31 10.44579 -75.51489 24 ft 4 kts 274°
2026-05-07 19:31 10.44580 -75.51517 24 ft 2 kts 270°
2026-05-07 19:31 10.44580 -75.51525 24 ft 0 kts 271°
2026-05-07 19:31 10.44580 -75.51529 24 ft 0 kts 271°